EW9798 Weather Reports


Display with metric or nautical units.
time (UTC)temp
F
wind
direction
speed
MPH
gust
MPH
rain 1hr
in
rain 24hr
in
rain mn
in
humidity
%
barometer
mb
20260906171606 54 360 0.0 1.0 0.00 0.17 0.17 98 1019.1
20260906170030 54 360 0.0 3.0 0.00 0.17 0.17 98 1019.1
20260906163031 54 343 2.0 4.0 0.00 0.17 0.17 98 1019.0
20260906160030 54 88 0.0 3.0 0.04 0.17 0.17 98 1018.8
20260906154529 54 135 0.0 0.0 0.05 0.17 0.17 98 1018.8
20260906153032 54 135 0.0 0.0 0.06 0.17 0.15 98 1018.7
20260906151529 54 135 0.0 0.0 0.05 0.15 0.13 98 1018.5
20260906144531 54 135 0.0 1.0 0.05 0.12 0.11 98 1018.2
20260906143031 53 135 0.0 0.0 0.05 0.11 0.10 98 1018.0
20260906141529 53 135 0.0 0.0 0.04 0.10 0.08 98 1017.8
20260906140106 53 135 0.0 0.0 0.02 0.08 0.07 98 1017.6
20260906133030 53 135 0.0 0.0 0.00 0.06 0.06 98 1017.3
20260906131530 54 135 0.0 0.0 0.00 0.06 0.06 98 1017.3
20260906130030 53 138 1.0 3.0 0.00 0.06 0.06 98 1017.3
20260906124531 53 202 0.0 0.0 0.00 0.06 0.06 98 1017.4
20260906123030 54 202 0.0 0.0 0.00 0.06 0.06 98 1017.4
20260906121529 54 188 0.0 1.0 0.01 0.06 0.06 98 1017.5
20260906114530 54 90 0.0 1.0 0.01 0.06 0.06 98 1017.6
20260906113032 54 132 0.0 1.0 0.01 0.06 0.05 98 1017.6
20260906111606 53 157 1.0 2.0 0.00 0.05 0.05 97 1017.8
20260906110031 54 157 0.0 2.0 0.01 0.05 0.05 97 1017.8
20260906104530 54 157 0.0 0.0 0.01 0.05 0.05 97 1018.0
20260906103029 53 337 0.0 3.0 0.02 0.05 0.05 97 1018.0
20260906100106 54 270 0.0 0.0 0.03 0.04 0.04 97 1018.1
20260906093029 54 252 0.0 4.0 0.03 0.03 0.02 97 1018.0
20260906091529 54 118 2.0 5.0 0.02 0.02 0.01 96 1017.9
20260906090031 53 112 0.0 3.0 0.01 0.01 0.00 96 1018.0
20260906084604 53 112 1.0 3.0 0.00 0.00 0.00 96 1018.0
20260906083030 53 112 0.0 1.0 0.00 0.00 0.00 96 1018.1
20260906081607 52 112 0.0 2.0 0.00 0.00 0.00 96 1018.0
20260906080032 52 112 0.0 3.0 0.00 0.00 0.00 96 1017.9
20260906074607 52 112 2.0 3.0 0.00 0.00 0.00 96 1017.9
20260906071530 52 93 1.0 3.0 0.00 0.00 0.00 95 1018.1
20260906070033 51 135 0.0 2.0 0.00 0.00 0.00 95 1018.2
20260906064530 51 135 1.0 3.0 0.00 0.00 0.00 94 1018.3
20260906063107 51 137 3.0 5.0 0.00 0.00 0.00 94 1018.4
20260906060106 51 130 2.0 5.0 0.00 0.01 0.00 94 1018.5
20260906054531 52 114 2.0 4.0 0.00 0.01 0.00 93 1018.4
20260906053031 52 112 2.0 3.0 0.00 0.01 0.00 93 1018.5
20260906051533 52 112 1.0 4.0 0.00 0.01 0.00 93 1018.5
20260906050107 53 112 0.0 2.0 0.00 0.01 0.00 93 1018.6
20260906044534 53 115 3.0 4.0 0.00 0.01 0.00 93 1018.5
20260906043030 53 134 2.0 4.0 0.00 0.01 0.00 92 1018.6
20260906041540 53 112 2.0 4.0 0.00 0.01 0.00 92 1018.5
20260906041531 53 120 2.0 4.0 0.00 0.01 0.00 91 1018.4
20260906034605 54 112 3.0 4.0 0.00 0.01 0.00 89 1018.3
20260906033029 54 112 0.0 3.0 0.00 0.01 0.00 88 1018.1
20260906031529 55 112 0.0 2.0 0.00 0.01 0.00 86 1017.9
20260906030030 57 142 1.0 3.0 0.00 0.01 0.00 85 1017.8
20260906024532 59 169 0.0 2.0 0.00 0.01 0.00 83 1017.8
20260906023031 61 180 2.0 4.0 0.00 0.01 0.00 80 1017.7
20260906021528 62 199 1.0 5.0 0.00 0.01 0.00 78 1017.7
20260906020030 63 212 1.0 5.0 0.00 0.01 0.00 75 1017.6
20260906014605 64 224 2.0 4.0 0.00 0.01 0.00 72 1017.6
20260906013106 65 219 1.0 3.0 0.00 0.01 0.00 70 1017.7
20260906011531 65 192 2.0 5.0 0.00 0.01 0.00 70 1017.8
20260906010106 65 210 2.0 5.0 0.00 0.01 0.00 72 1018.0
20260906004528 65 221 2.0 5.0 0.00 0.01 0.00 71 1018.1
20260906000042 62 163 3.0 7.0 0.00 0.01 0.00 78 1018.4
20260905234609 62 169 4.0 7.0 0.00 0.01 0.00 78 1018.4
20260905233028 63 202 3.0 8.0 0.00 0.01 0.00 76 1018.3
20260905231531 64 234 3.0 9.0 0.00 0.01 0.00 73 1018.2
20260905230031 65 188 1.0 4.0 0.00 0.01 0.00 72 1018.1
20260905224530 66 288 1.0 5.0 0.00 0.01 0.00 69 1018.0
20260905223030 66 330 2.0 7.0 0.00 0.01 0.00 68 1018.0
20260905221607 67 315 0.0 2.0 0.00 0.01 0.00 67 1018.0
20260905213033 65 183 1.0 5.0 0.00 0.01 0.00 66 1018.3
20260905211532 65 179 3.0 6.0 0.00 0.01 0.00 67 1018.5
20260905210033 65 208 2.0 6.0 0.00 0.01 0.00 68 1018.6
20260905204635 66 220 2.0 6.0 0.00 0.01 0.00 67 1018.6
20260905203031 66 200 2.0 5.0 0.00 0.01 0.00 67 1018.6
20260905201536 66 222 2.0 4.0 0.00 0.01 0.00 65 1018.7
20260905194531 67 327 1.0 5.0 0.00 0.01 0.00 65 1018.9
20260905193030 65 333 2.0 6.0 0.00 0.01 0.00 68 1019.1
20260905191531 63 1 2.0 5.0 0.00 0.01 0.00 72 1019.3
20260905190029 62 8 3.0 7.0 0.00 0.01 0.00 75 1019.5
20260905184531 61 7 2.0 7.0 0.00 0.01 0.00 78 1019.7
20260905183031 60 341 1.0 5.0 0.00 0.01 0.00 79 1019.9
20260905180028 59 321 1.0 4.0 0.00 0.01 0.00 88 1020.1
20260905174530 57 334 0.0 3.0 0.00 0.01 0.00 91 1020.2
20260905173030 57 327 0.0 3.0 0.00 0.01 0.00 93 1020.2